Flag for Congo Weather past 2 weeks in Pointe-Noire, Congo

Now
73 °F

Passing clouds.


Feels Like: 70 °F
Forecast: 73 / 79 °F
Wind: 7 mph from South

Location: Pointe Airport-Noire

Current Time: Sep 18, 2014 at 6:58:08 AM

Latest Report: Sep 18, 2014 at 6:00 AM


Visibility: 4 mi

Pressure: 29.92 "Hg

Humidity: 94%

Dew point: 72 °F

Location of Pointe-NoireLocation

Historic Weather in Pointe-Noire — Graph

°F

Pointe-Noire temperature yesterday

Maximum temperature yesterday: 81 °F (at 2:00 PM)
Minimum temperature yesterday: 73 °F (at 4:00 AM)
Average temperature yesterday: 76 °F

Past Weeks' High & Low Weather Summary

 TemperatureHumidityPressure
High81 °F (Sep 12, 1:00 PM)100% (Sep 5, 2:00 AM)30.07 "Hg (Sep 5, 2:00 AM)
Low66 °F (Sep 6, 6:00 AM)61% (Sep 5, 12:00 PM)29.86 "Hg (Sep 3, 4:00 PM)
Average74 °F84%29.94 "Hg
* Reported Sep 3 5:00 AM — Sep 18 5:00 AM, Pointe-Noire, Weather by CustomWeather, © 2014

Note: Actual official high and low records may vary slightly from our data, if they occured in-between our weather recording intervals... More about our weather records

Advertising

Pointe-Noire weather history for previous 24 hours

 ConditionsComfort  
Time TempWeatherWind HumidityBarometerVisibility
5:00 AM
Sep 18
73 °FPassing clouds.9 mph94%29.92 "Hg4 mi
4:00 AM73 °FPassing clouds.9 mph89%29.92 "Hg4 mi
3:00 AM73 °FLight rain. Partly cloudy.9 mph94%29.92 "Hg4 mi
2:00 AM73 °FLight rain. Partly cloudy.14 mph89%29.92 "Hg2 mi
1:00 AM75 °FLight rain. Overcast.8 mph83%29.95 "Hg2 mi
12:00 AM75 °FOvercast.6 mph83%29.95 "Hg4 mi
11:00 PM
Sep 17
75 °FPassing clouds.9 mph89%29.95 "Hg4 mi
10:00 PM75 °FPartly cloudy.8 mph83%29.95 "Hg4 mi
9:00 PM75 °FPassing clouds.7 mph83%29.92 "Hg4 mi
8:00 PM75 °FMostly cloudy.8 mph89%29.92 "Hg4 mi
7:00 PM75 °FMostly cloudy.7 mph89%29.89 "Hg4 mi
6:00 PM77 °FMore clouds than sun.8 mph83%29.89 "Hg4 mi
5:00 PM77 °FMostly cloudy.10 mph79%29.89 "Hg4 mi
4:00 PM79 °FMore clouds than sun.10 mph74%29.86 "HgN/A
3:00 PM79 °FBroken clouds.10 mph74%29.86 "Hg5 mi
2:00 PM81 °FScattered clouds.10 mph70%29.89 "Hg5 mi
1:00 PM79 °FPartly sunny.10 mph74%29.92 "Hg4 mi
12:00 PM79 °FPartly sunny.12 mph74%29.92 "Hg4 mi
11:00 AM77 °FMore clouds than sun.9 mph79%29.95 "Hg4 mi
10:00 AM77 °FMore clouds than sun.7 mph79%29.98 "Hg4 mi
9:00 AM75 °FFog.6 mph89%29.95 "Hg2 mi
8:00 AM75 °FFog.6 mph89%29.95 "Hg2 mi
7:00 AM75 °FMore clouds than sun.3 mph89%29.95 "Hg4 mi
6:00 AM73 °FMostly cloudy.3 mph94%29.95 "Hg4 mi
Weather by CustomWeather, © 2014

See weather overviewHow to use our weather pages